Find Thaicom 6

NORAD ID: 39500 Int'l Des: 2014-002 Owner: THAIC Country: T operational
HEOCIRCULARGSOGEO

現在のビュー

3D地球を読み込み中...

Thaicom 6について

説明を読み込み中...

次回通過

Passes for default location (London). Set your location on the main map for personalized predictions.

高度履歴

Loading altitude history...

軌道要素

1 39500U 14002A 26151.17544867 -.00000109 00000-0 00000+0 0 9991
2 39500 0.0650 115.7083 0004544 340.9929 293.6802 1.00270885 45288
Epoch: May 31, 2026 • Age: 11 hours

現在のステータス

高度 35787.9 km
速度 3.07 km/s
衛星直下点 0.04°N, 78.58°E
打ち上げ日 Jan 6, 2014
運用期間 12.3 years
タイプ other

技術仕様

分類 Payload
質量 3016.00 kg
乾燥質量 2500.00 kg
総質量 3016.00 kg
長さ 5.00 m
直径 2.00 m
スパン 18.00 m
形状 Box+ 2 pan
製造者 OSCD
バスタイプ Star-2.3
フェーズステータス In Orbit
所有者/国 THAIC/T

Most Searched